Change the Weather History Date:

Wednesday, September 19, 2012

  Actual Average (KFFM) Record (KFFM)
Temperature  
Mean Temperature 54 °F -  
Max Temperature 64 °F 69 °F 89 °F (1970)
Min Temperature 44 °F 46 °F 34 °F (1991)
Degree Days  
Heating Degree Days 11    
Growing Degree Days 4 (Base 50)    
Moisture  
Dew Point 36 °F    
Average Humidity 49    
Maximum Humidity 87    
Minimum Humidity 32    
Precipitation  
Precipitation 0.00 in - - ()
Sea Level Pressure  
Sea Level Pressure 29.74 in    
Wind  
Wind Speed 16 mph (West)    
Max Wind Speed 30 mph    
Max Gust Speed 38 mph    
Visibility 10 miles    
Events Rain    
Averages and records for this station are not official NWS values.
T = Trace of Precipitation, MM = Missing Value Source: NWS Daily Summary

Daily Weather History Graph

Daily Weather History Graph

Search for Another Location

Airport or City:

Trip Planner

Search our weather history database for the weather conditions in past years. The results will help you decide how hot, cold, wet, or windy it might be!

Date:

Astronomy

Sep. 19, 2012 Rise Set
Actual Time 7:07 AM CDT 7:26 PM CDT
Civil Twilight 6:37 AM CDT 7:56 PM CDT
Nautical Twilight 6:02 AM CDT 8:31 PM CDT
Astronomical Twilight 5:26 AM CDT 9:07 PM CDT
Moon 11:36 AM CDT (9/19) 9:18 PM CDT (9/19)
Length of Visible Light 13h 18m
Length of Day
12h 18m
Waxing Crescent, 17% of the Moon is Illuminated
Sep 19
Waxing Crescent
Sep 22
First Quarter
Sep 29
Full
Oct 8
Last Quarter
Oct 15
New

Hourly Weather History & Observations

Time (CDT) Temp. Windchill Dew Point Humidity Pressure Visibility Wind Dir Wind Speed Gust Speed Precip Events Conditions
12:15 AM 51.8 °F - 32.0 °F 47% 29.75 in 10.0 mi SSE 17.3 mph 24.2 mph N/A   Clear
12:35 AM 51.8 °F - 32.0 °F 47% 29.74 in 10.0 mi SSE 18.4 mph - N/A   Clear
12:55 AM 51.8 °F - 32.0 °F 47% 29.74 in 10.0 mi South 17.3 mph 20.7 mph N/A   Clear
1:15 AM 51.8 °F - 32.0 °F 47% 29.73 in 10.0 mi South 18.4 mph - N/A   Clear
1:35 AM 51.8 °F - 32.0 °F 47% 29.72 in 10.0 mi South 16.1 mph - N/A   Clear
1:55 AM 51.8 °F - 32.0 °F 47% 29.71 in 10.0 mi SSE 17.3 mph - N/A   Clear
2:15 AM 51.8 °F - 32.0 °F 47% 29.70 in 10.0 mi South 15.0 mph 20.7 mph N/A   Clear
2:35 AM 51.8 °F - 32.0 °F 47% 29.69 in 10.0 mi South 17.3 mph 23.0 mph N/A   Clear
2:55 AM 51.8 °F - 33.8 °F 50% 29.67 in 10.0 mi SSE 16.1 mph - N/A   Scattered Clouds
3:15 AM 51.8 °F - 33.8 °F 50% 29.65 in 10.0 mi SSE 17.3 mph 21.9 mph N/A   Mostly Cloudy
3:35 AM 51.8 °F - 33.8 °F 50% 29.63 in 10.0 mi South 17.3 mph 23.0 mph N/A   Scattered Clouds
3:55 AM 51.8 °F - 33.8 °F 50% 29.64 in 10.0 mi South 12.7 mph - N/A   Clear
4:15 AM 50.0 °F - 33.8 °F 54% 29.63 in 10.0 mi South 11.5 mph - N/A   Clear
4:35 AM 50.0 °F - 33.8 °F 54% 29.62 in 10.0 mi South 11.5 mph - N/A   Scattered Clouds
5:15 AM 50.0 °F - 35.6 °F 58% 29.63 in 10.0 mi South 8.1 mph - N/A   Mostly Cloudy
5:35 AM 50.0 °F - 35.6 °F 58% 29.64 in 10.0 mi South 4.6 mph - N/A   Mostly Cloudy
6:15 AM 50.0 °F - 37.4 °F 62% 29.65 in 10.0 mi Calm Calm - N/A Rain Light Rain
6:35 AM 50.0 °F - 39.2 °F 66% 29.66 in 10.0 mi South 3.5 mph - N/A   Light Drizzle
6:55 AM 48.2 °F - 41.0 °F 76% 29.63 in 10.0 mi SE 4.6 mph - N/A Rain Light Rain
7:15 AM 46.4 °F 43.5 °F 39.2 °F 76% 29.66 in 10.0 mi West 5.8 mph - N/A   Scattered Clouds
7:35 AM 44.6 °F 41.4 °F 41.0 °F 87% 29.65 in 10.0 mi South 5.8 mph - N/A   Scattered Clouds
7:55 AM 44.6 °F - 41.0 °F 87% 29.65 in 10.0 mi Calm Calm - N/A   Scattered Clouds
8:15 AM 48.2 °F - 41.0 °F 76% 29.66 in 10.0 mi West 6.9 mph - N/A   Clear
8:35 AM 51.8 °F - 41.0 °F 67% 29.67 in 10.0 mi WSW 9.2 mph - N/A   Clear
8:55 AM 53.6 °F - 41.0 °F 62% 29.67 in 10.0 mi West 10.4 mph - N/A   Clear
9:15 AM 55.4 °F - 42.8 °F 63% 29.68 in 10.0 mi WNW 9.2 mph - N/A   Clear
9:35 AM 59.0 °F - 44.6 °F 59% 29.68 in 10.0 mi WNW 11.5 mph - N/A   Clear
10:15 AM 60.8 °F - 42.8 °F 52% 29.68 in 10.0 mi WNW 15.0 mph - N/A   Clear
10:55 AM 62.6 °F - 42.8 °F 48% 29.69 in 10.0 mi WNW 19.6 mph 29.9 mph N/A   Clear
11:15 AM 62.6 °F - 41.0 °F 45% 29.69 in 10.0 mi NW 20.7 mph 32.2 mph N/A   Clear
11:35 AM 62.6 °F - 41.0 °F 45% 29.70 in 10.0 mi NW 24.2 mph 32.2 mph N/A   Clear
11:55 AM 62.6 °F - 41.0 °F 45% 29.71 in 10.0 mi WNW 25.3 mph 34.5 mph N/A   Clear
12:15 PM 62.6 °F - 41.0 °F 45% 29.72 in 10.0 mi NW 26.5 mph 34.5 mph N/A   Mostly Cloudy
12:35 PM 64.4 °F - 41.0 °F 42% 29.73 in 10.0 mi WNW 21.9 mph 32.2 mph N/A   Overcast
12:55 PM 64.4 °F - 37.4 °F 37% 29.73 in 10.0 mi NW 26.5 mph 38.0 mph N/A   Mostly Cloudy
1:15 PM 62.6 °F - 37.4 °F 39% 29.74 in 10.0 mi NW 27.6 mph 36.8 mph N/A   Mostly Cloudy
1:35 PM 64.4 °F - 37.4 °F 37% 29.75 in 10.0 mi NW 23.0 mph 29.9 mph N/A   Mostly Cloudy
1:55 PM 64.4 °F - 37.4 °F 37% 29.76 in 10.0 mi NW 26.5 mph 36.8 mph N/A   Mostly Cloudy
2:15 PM 60.8 °F - 37.4 °F 42% 29.76 in 10.0 mi NW 24.2 mph 34.5 mph N/A   Mostly Cloudy
2:35 PM 64.4 °F - 37.4 °F 37% 29.76 in 10.0 mi WNW 23.0 mph 34.5 mph N/A   Mostly Cloudy
2:55 PM 64.4 °F - 35.6 °F 34% 29.76 in 10.0 mi WNW 24.2 mph 36.8 mph N/A   Mostly Cloudy
3:15 PM 64.4 °F - 35.6 °F 34% 29.77 in 10.0 mi WNW 25.3 mph 33.4 mph N/A   Mostly Cloudy
3:35 PM 64.4 °F - 35.6 °F 34% 29.77 in 10.0 mi NW 29.9 mph 34.5 mph N/A   Mostly Cloudy
3:55 PM 62.6 °F - 35.6 °F 37% 29.78 in 10.0 mi NW 29.9 mph 34.5 mph N/A   Mostly Cloudy
4:15 PM 62.6 °F - 35.6 °F 37% 29.79 in 10.0 mi WNW 23.0 mph 31.1 mph N/A   Overcast
4:35 PM 62.6 °F - 37.4 °F 39% 29.79 in 10.0 mi NW 21.9 mph 32.2 mph N/A   Overcast
4:55 PM 62.6 °F - 35.6 °F 37% 29.80 in 10.0 mi NW 26.5 mph 34.5 mph N/A   Overcast
5:15 PM 60.8 °F - 35.6 °F 39% 29.81 in 10.0 mi NW 21.9 mph 28.8 mph N/A   Overcast
5:35 PM 60.8 °F - 33.8 °F 36% 29.81 in 10.0 mi NW 21.9 mph 32.2 mph N/A   Overcast
5:55 PM 60.8 °F - 33.8 °F 36% 29.81 in 10.0 mi NNW 18.4 mph 31.1 mph N/A   Overcast
6:15 PM 62.6 °F - 33.8 °F 34% 29.81 in 10.0 mi NW 19.6 mph 26.5 mph N/A   Overcast
6:35 PM 62.6 °F - 32.0 °F 32% 29.82 in 10.0 mi NW 20.7 mph 28.8 mph N/A   Overcast
6:55 PM 60.8 °F - 32.0 °F 34% 29.82 in 10.0 mi NW 19.6 mph 29.9 mph N/A   Scattered Clouds
7:15 PM 60.8 °F - 32.0 °F 34% 29.83 in 10.0 mi NW 20.7 mph 24.2 mph N/A   Mostly Cloudy
7:35 PM 59.0 °F - 32.0 °F 36% 29.84 in 10.0 mi NW 15.0 mph - N/A   Scattered Clouds
7:55 PM 59.0 °F - 32.0 °F 36% 29.84 in 10.0 mi NW 15.0 mph - N/A   Clear
8:15 PM 55.4 °F - 32.0 °F 41% 29.84 in 10.0 mi NW 10.4 mph - N/A   Clear
8:35 PM 55.4 °F - 32.0 °F 41% 29.85 in 10.0 mi WNW 8.1 mph - N/A   Clear
9:15 PM 50.0 °F - 32.0 °F 50% 29.85 in 10.0 mi WNW 8.1 mph - N/A   Clear
9:35 PM 48.2 °F - 32.0 °F 54% 29.86 in 10.0 mi WNW 8.1 mph - N/A   Clear
9:55 PM 48.2 °F - 32.0 °F 54% 29.86 in 10.0 mi WNW 6.9 mph - N/A   Clear
10:15 PM 46.4 °F 44.3 °F 32.0 °F 57% 29.87 in 10.0 mi WNW 4.6 mph - N/A   Clear
10:35 PM 46.4 °F 42.9 °F 32.0 °F 57% 29.87 in 10.0 mi WNW 6.9 mph - N/A   Clear
10:55 PM 44.6 °F 39.7 °F 32.0 °F 61% 29.87 in 10.0 mi West 9.2 mph - N/A   Clear
11:15 PM 44.6 °F 42.2 °F 32.0 °F 61% 29.87 in 10.0 mi WNW 4.6 mph - N/A   Clear
11:55 PM 46.4 °F 42.4 °F 32.0 °F 57% 29.88 in 10.0 mi NW 8.1 mph - N/A   Clear